Location: Sungai Bunut
(2.6333°N, 113.7333°E)
Time: 14:21:01
(UTC+00:00)

S-56A Canister/Altair - All Passes

Search period start: 03 December 2023 00:00
Search period end: 13 December 2023 00:00
Orbit: 640 x 2489 km, 38.8° (Epoch: 02 December)

Date Brightness Start Highest point End Pass type
(mag) Time Alt. Az. Time Alt. Az. Time Alt. Az.
03 Dec - 00:28:12 10° SW 00:36:43 56° SE 00:42:25 10° ENE daylight
03 Dec - 02:35:53 10° W 02:40:22 20° NW 02:44:03 10° N daylight
03 Dec - 11:00:51 10° NNW 11:08:02 35° NE 11:18:14 10° ESE visible
03 Dec - 13:03:36 10° WNW 13:13:07 66° SW 13:26:53 10° SE visible
03 Dec - 15:11:59 10° WSW 15:20:45 22° SSW 15:30:56 10° SSE visible
03 Dec - 21:52:39 10° S 21:56:32 12° SSE 21:59:58 10° SE visible
03 Dec - 23:54:23 10° SW 00:03:23 47° SE 00:09:24 10° ENE daylight
04 Dec - 02:01:29 10° W 02:07:19 27° NW 02:11:46 10° NNE daylight
04 Dec - 10:28:21 10° NNW 10:34:40 28° NE 10:43:20 10° E visible
04 Dec - 12:30:24 10° NW 12:39:21 74° SW 12:52:42 10° SE visible
04 Dec - 14:37:43 10° W 14:46:34 24° SSW 14:57:17 10° SSE visible
04 Dec - 21:19:36 10° S 21:22:34 11° SSE 21:25:17 10° SE visible
04 Dec - 23:20:33 10° SSW 23:29:56 41° SE 23:36:17 10° ENE daylight
05 Dec - 01:27:11 10° WSW 01:34:15 36° NW 01:39:19 10° NNE daylight
05 Dec - 09:56:03 10° N 10:01:21 21° NE 10:08:16 10° E daylight
05 Dec - 11:57:19 10° NW 12:05:42 85° SW 12:18:28 10° SE visible
05 Dec - 14:03:43 10° W 14:12:28 27° SSW 14:23:32 10° SSE visible
05 Dec - 20:47:25 10° SSE 20:48:30 10° SSE 20:49:33 10° SSE visible
05 Dec - 22:46:42 10° SSW 22:56:22 36° SE 23:03:04 10° E daylight
06 Dec - 00:52:55 10° WSW 01:01:08 47° NW 01:06:44 10° NNE daylight
06 Dec - 09:24:03 10° N 09:28:04 16° NE 09:32:55 10° E daylight
06 Dec - 11:24:21 10° NW 11:32:08 83° NE 11:44:11 10° SE visible
06 Dec - 13:29:55 10° W 13:38:27 30° SSW 13:49:41 10° SSE visible
06 Dec - 22:12:50 10° SSW 22:22:43 32° SSE 22:29:45 10° E daylight
07 Dec - 00:18:40 10° WSW 00:27:57 61° NW 00:34:04 10° NE daylight
07 Dec - 08:53:02 10° NNE 08:54:46 11° NE 08:56:39 10° ENE daylight
07 Dec - 10:51:28 10° NW 10:58:41 70° NE 11:09:51 10° SE visible
07 Dec - 12:56:17 10° W 13:04:32 34° SW 13:15:48 10° SSE visible
07 Dec - 15:13:13 10° SSW 15:13:30 10° SSW 15:13:47 10° SSW visible
07 Dec - 21:38:58 10° SSW 21:48:58 29° SSE 21:56:18 10° E visible
07 Dec - 23:44:26 10° SW 23:54:42 75° NW 00:01:18 10° NE daylight
08 Dec - 01:57:22 10° NW 01:58:23 10° NW 01:59:21 10° NW daylight
08 Dec - 10:18:42 10° NW 10:25:21 58° NE 10:35:30 10° ESE visible
08 Dec - 12:22:49 10° W 12:30:42 37° SW 12:41:52 10° SSE visible
08 Dec - 14:35:48 10° SW 14:39:10 11° SSW 14:42:45 10° S visible
08 Dec - 21:05:07 10° SSW 21:15:07 26° SSE 21:22:42 10° E visible
08 Dec - 23:10:14 10° SW 23:21:20 89° NW 23:28:27 10° NE daylight
09 Dec - 01:20:55 10° WNW 01:25:10 15° NW 01:28:43 10° N daylight
09 Dec - 09:46:01 10° NNW 09:52:06 46° NE 10:01:07 10° ESE daylight
09 Dec - 11:49:29 10° WNW 11:56:58 42° SW 12:07:54 10° SSE visible
09 Dec - 14:00:33 10° SW 14:04:56 13° SSW 14:09:47 10° S visible
09 Dec - 20:31:19 10° SSW 20:41:09 24° SSE 20:48:54 10° E visible
09 Dec - 22:36:01 10° SW 22:47:51 79° SE 22:55:29 10° NE daylight
10 Dec - 00:45:41 10° W 00:51:56 21° NW 00:56:46 10° N daylight
10 Dec - 09:13:27 10° NNW 09:18:55 35° NE 09:26:40 10° ESE daylight
10 Dec - 11:16:17 10° WNW 11:23:21 48° SW 11:33:56 10° SSE visible
10 Dec - 13:25:51 10° SW 13:30:47 14° SSW 13:36:28 10° S visible
10 Dec - 19:57:34 10° SSW 20:07:06 21° SSE 20:14:55 10° ESE visible
10 Dec - 22:01:50 10° SW 22:14:16 68° SE 22:22:26 10° ENE daylight
11 Dec - 00:10:45 10° W 00:18:41 28° NW 00:24:29 10° NNE daylight
11 Dec - 08:41:00 10° NNW 08:45:47 27° NE 08:52:11 10° E daylight
11 Dec - 10:43:10 10° WNW 10:49:49 55° SW 10:59:58 10° SE visible
11 Dec - 12:51:32 10° WSW 12:56:46 15° SSW 13:02:59 10° S visible
11 Dec - 19:23:54 10° S 19:32:58 19° SSE 19:40:40 10° ESE visible
11 Dec - 21:27:42 10° SW 21:40:34 60° SE 21:49:17 10° ENE visible
11 Dec - 23:35:57 10° WSW 23:45:24 35° NW 23:51:59 10° NNE daylight
12 Dec - 08:08:44 10° N 08:12:40 20° NE 08:17:34 10° E daylight
12 Dec - 10:10:08 10° WNW 10:16:23 64° SW 10:25:59 10° SE daylight
12 Dec - 12:17:29 10° WSW 12:22:50 17° SSW 12:29:25 10° S visible
12 Dec - 18:50:22 10° S 18:58:43 17° SSE 19:06:07 10° ESE visible
12 Dec - 20:53:35 10° SW 21:06:46 53° SE 21:16:00 10° ENE visible
12 Dec - 23:01:15 10° WSW 23:12:02 44° NW 23:19:22 10° NNE daylight
